www.pogodaiklimat.ru

Погода и климат >> Архив погоды >> Гондурас >> Choluteca


ПОГОДА в Choluteca

  • Прогноз погоды в Choluteca
  • Монитор погоды в Choluteca
  • Климат города

АРХИВ ПОГОДЫ в Choluteca

Время (UTC), дата Ветер
(напр.,м/с)
 
Видим.   Явления Облачность Т
(С)
Тd
(С)
f
(%)
Тe
(С)
Тes
(С)
Комфортность P
(гПа)
Po
(гПа)
Тmin
(С)
Tmax
(С)
R
(мм)
R24
(мм)
S
(см)
00 14.11 штиль 0 20 км мгла {туман} 4/4 900 м
[Cu med, cong]
+30.4 +21.8 60 +39 +39 очень
душно
1012.2 1006.5 +25.4 +36.0
12 14.11 штиль 0 20 км мгла 8/3 900 м
[Sc Ac lent Ci fib]
+25.0 +21.1 79 +32 +32 очень
душно
1012.7 1007.0 +25.0 +36.0
15 14.11 СВ 7 20 км мгла {туман} 3/3 1020 м
[Cu hum]
+31.8 +22.2 57 +41 +42 опасность
перегрева
1013.7 1008.0
18 14.11 СВ 7 20 км мгла {туман} 4/4 1020 м
[Cu hum]
+34.0 +21.5 48 +42 +44 опасность
перегрева
1012.2 1006.5 +25.0 +34.0
21 14.11 СВ 7 20 км мгла {туман} 8/5 1020 м
[Cu med, cong Ac und]
+35.2 +21.5 45 +43 +43 опасность
перегрева
1010.7 1006.0
00 15.11 С 5 20 км мгла {туман} 9/5 900 м
[Cb cap Ac As]
+31.4 +22.5 59 +41 +41 опасность
перегрева
1011.4 1005.7 +25.0 +35.2
12 15.11 С 3 20 км мгла 3/3 900 м
[Sc]
+24.8 +19.6 73 +30 +30 душно 1013.6 1007.9 +24.8 +35.2
15 15.11 С 9 20 км мгла {туман} 3/3 900 м
[Cu hum]
+28.9 +28.9 100 +50 +51 опасность
перегрева
1013.0 1007.3
18 15.11 СВ 10 20 км мгла {туман} 3/3 1020 м
[Cu hum Ci fib]
+32.6 +19.2 45 +38 +38 очень
душно
1012.1 1006.4 +24.8 +32.6
21 15.11 СВ 9 20 км мгла {туман} 6/4 1020 м
[Cu hum Ci fib]
+33.4 +18.8 42 +38 +39 очень
душно
1012.1 1006.4
00 16.11 С 3 20 км мгла {туман} 4/4 900 м
[Sc]
+28.6 +19.1 56 +34 +34 очень
душно
1012.4 1006.7 +24.8 +33.4
12 16.11 штиль 0 20 км мгла 5/3 900 м
[Sc Ci fib]
+25.0 +21.1 79 +32 +32 очень
душно
1012.2 1006.5 +25.0 +34.4
15 16.11 С 9 10 км мгла {туман} 3/3 900 м
[Cu hum]
+30.0 +21.5 60 +38 +38 очень
душно
1017.7 1007.0
18 16.11 С 13 20 км мгла {туман} 4/4 1020 м
[Cu hum Ci fib]
+33.2 +21.9 52 +42 +42 опасность
перегрева
1013.6 1007.5 +25.0 +33.2
21 16.11 СВ 9 20 км мгла {туман} 4/4 1020 м
[Cu hum]
+32.8 +22.0 53 +41 +42 опасность
перегрева
1012.4 1006.7
00 17.11 С 6 20 км мгла {туман} 6/4 900 м
[Cu hum Ac und]
+30.0 +22.7 65 +40 +40 очень
душно
1013.4 1007.7 +25.0 +34.0
12 17.11 штиль 0 20 км мгла 5/3 900 м
[Sc Ci fib]
+24.8 +19.2 71 +30 +30 душно 1013.8 1008.1 +24.8 +34.0
15 17.11 С 7 20 км мгла {туман} 3/3 900 м
[Cu hum Ci fib]
+30.0 +18.7 51 +35 +37 очень
душно
1012.8 1007.1
18 17.11 С 10 20 км мгла {туман} 4/4 1020 м
[Cu hum]
+33.6 +20.1 45 +40 +40 очень
душно
1013.7 1008.0 +24.8 +33.6
21 17.11 С 8 20 км мгла {туман} 5/5 1020 м
[Cu hum]
+34.0 +21.2 47 +41 +42 опасность
перегрева
1011.5 1005.8
00 18.11 С 3 20 км мгла {туман} 5/4 900 м
[Cu med, cong Ci fib]
+30.0 +21.3 60 +38 +38 очень
душно
1012.5 1006.8 +24.8 +34.6
12 18.11 СВ 7 10 км мгла 3/3 900 м
[Sc]
+27.0 +22.1 75 +35 +35 очень
душно
1013.7 1008.0 +27.0 +34.6
15 18.11 С 6 20 км мгла {туман} 6/3 900 м
[Cu hum Ac und]
+31.2 +22.2 59 +40 +42 очень
душно
1014.7 1009.0
18 18.11 С 5 20 км мгла {туман} 6/6 1020 м
[Cu hum]
+34.0 +22.3 51 +43 +46 опасность
перегрева
1013.2 1007.5 +27.0 +34.0
00 19.11 штиль 0 20 км мгла {туман} 3/3 900 м
[Cu hum]
+32.0 +22.4 57 +41 +41 опасность
перегрева
1013.4 1007.7 +27.0 +35.2
12 19.11 С 3 10 км мгла 5/1 900 м
[Sc Ci fib]
+27.0 +19.8 65 +33 +33 очень
душно
1013.4 1007.7 +27.0 +34.8
15 19.11 С 5 20 км мгла {туман} 5/4 900 м
[Cu hum Ci fib]
+31.4 +20.4 52 +38 +40 очень
душно
1011.1 1006.4
18 19.11 С 6 20 км мгла {туман} 8/6 1020 м
[Cu hum Ac und]
+35.0 +21.1 44 +42 +44 опасность
перегрева
1012.2 1006.5 +17.0 +35.0
21 19.11 С 5 20 км мгла {туман} 6/5 1020 м
[Cu hum Ci fib]
+34.6 +21.3 46 +42 +44 опасность
перегрева
1011.2 1005.5
00 20.11 штиль 0 20 км мгла {туман} 4/4 900 м
[Cu hum Ci fib]
+31.6 +20.9 53 +39 +39 очень
душно
1012.7 1006.0 +27.0 +35.2
12 20.11 С 6 20 км мгла 9/6 900 м
[Cu med, cong Cs]
+25.6 +20.9 75 +32 +32 очень
душно
1013.4 1007.7 +25.6 +35.2
18 20.11 СВ 1 10 км мгла {туман} 9/5 1020 м
[Cu hum Cs]
+34.4 +22.5 50 +44 +52 опасность
перегрева
1012.7 1007.0 +25.6 +34.4

 

Местоположение метеостанции Choluteca (Гондурас): широта 13.30 долгота -87.18 высота над уровнем моря 48 м.

В архиве по умолчанию представлена погода в Choluteca за последнюю неделю. Архивные данные за месяц целиком и за предыдущие месяцы, начиная с января 2011 года, Вы можете получить, выбрав интересующий диапазон дат из раскрывающегося списка и нажав кнопку "Ввод!".


*Определитесь, кто Вы:
робот инопланетянин человек

Внимание! Время в таблицах - всемирное. Для получения местного времени необходимо прибавить поправку, которая в Choluteca равна -6 ч.

Смотрите также архив погоды в соседних городах и на ближайших метеорологических станциях:

Погода в Amapala (Гондурас) (51 км)
Погода в Chinandega (Никарагуа) (75 км)
Погода в Tegucigalpa (Гондурас) (83 км)
Погода в Jinotega (Никарагуа) (132 км)
Погода в La Esperanza (Гондурас) (155 км)
Погода в Managua (Никарагуа) (168 км)
Погода в Yoro (Гондурас) (208 км)
Погода в Catacamas (Гондурас) (223 км)
Погода в Juigalpa (Никарагуа) (237 км)
Погода в Santa Rosa De Copan (Гондурас) (239 км)

Пояснения к столбцам:

Ветер - указаны скорость ветра в м/с - средняя за 10 мин, порывы в срок и между сроками (в фигурных скобках) и направление, откуда дует ветер: С - северный, СВ - северо-восточный, В - восточный, ЮВ - юго-восточный, Ю - южный, ЮЗ - юго-западный, З - западный, СЗ - северо-западный.
Видимость - горизонтальная дальность видимости в метрах или километрах. При видимости от 1 до 10 км при отсутствии осадков обычно наблюдается дымка, при ухудшении видимости до 1 км и менее - туман. В сухую погоду видимость может ухудшаться дымом, пылью или мглою.
Явления - указаны атмосферные явления, наблюдавшиеся в срок или в последний час перед сроком; фигурными скобками обозначены явления, наблюдавшиеся между сроками (за 1-3 часа до срока); квадратными скобками обозначены град или гололедные отложения с указанием их диаметра в мм.
Облачность - указаны через наклонную черту общая и нижняя облачность в баллах и высота нижней границы облаков в метрах; квадратными скобками обозначены формы облаков: Ci - перистые, Cs - перисто-слоистые, Cc - перисто-кучевые, Ac - высококучевые, As - высокослоистые, Sc - слоисто-кучевые, Ns - слоисто-дождевые, Cu - кучевые, Cb - кучево-дождевые. Подробнее классификацию облаков см. в Атласе облаков (PDF).
T - Температура воздуха - температура, измеренная на высоте 2 м над землей.
Td - Температура точки росы - температура, при понижении до которой содержащийся в воздухе водяной пар достигнет насыщения.
f - Относительная влажность воздуха - влажноcть воздуха, измеренная на высоте 2 м над землей.
Te - Эффективная температура - температура, которую ощущает одетый по сезону человек в тени. Характеристика душности погоды. При расчете учитывается влияние влажности воздуха и скорости ветра на теплоощущения человека.
Tes - Эффективная температура на солнце - температура, которую ощущает человек, с поправкой на солнечный нагрев. Характеристика знойности погоды. Зависит от высоты солнца над горизонтом, облачности и скорости ветра. Ночью, в пасмурную погоду, а также при ветре 12 м/с и более поправка равна нулю.
P - Атмосферное давление - приведенное к уровню моря атмосферное давление.
Po - Атмосферное давление - измеренное на уровне метеостанции атмосферное давление.
Tmin - Минимальная температура - минимум температуры воздуха на высоте 2 м над землей.
Tmax - Максимальная температура - максимум температуры воздуха на высоте 2 м над землей.
R - Количество осадков - Количество выпавших осадков за период времени, мм. При наведении курсора мыши на число - период времени, за который выпало указанное количество осадков.
R24 - Количество осадков - Количество выпавших осадков за 24 часа, мм.
S - Снежный покров - Высота снежного покрова, см. При наведении курсора мыши на число - состояние снежного покрова и степень покрытия местности в баллах.